Location: Quaker Farms
(41.4276°N, 73.1557°W)
Time: 22:02:30
(UTC+00:00)

Vanguard 1 - Pass Details

Date: 20 June 2021
Orbit: 651 x 3832 km, 34.2° (Epoch: 25 July)

Event Time Altitude Azimuth Distance (km) Brightness Sun altitude
Rises 06:59:01 0° 279° (W) 7,279 14.3 -19.0°
Reaches altitude 10° 07:04:48 10° 274° (W) 5,817 13.7 -18.4°
Maximum altitude 07:19:13 43° 212° (SSW) 2,556 11.7 -17.0°
Drops below altitude 10° 07:27:26 10° 143° (SE) 3,361 12.6 -16.1°
Sets 07:29:52 0° 136° (SE) 4,037 13.1 -15.8°
